Regional Weather Roundup
Issued by NWS

Home | Current Version | Previous Version | Graphics & Text | Print | Product List | Glossary On
Versions: 1 2 3 4 5 6 7 8 9 10 11 12 13 14 15 16 17 18 19 20 21 22 23 24 25 26 27 28 29 30 31 32 33 34 35 36 37 38 39 40 41 42 43 44 45 46 47 48 49 50
000
ASUS43 KTOP 261608
RWRKS

WEATHER ROUNDUP FOR KANSAS
NATIONAL WEATHER SERVICE GOODLAND KS
1000 AM CST WED NOV 26 2014

NOTE:  "FAIR" INDICATES FEW OR NO CLOUDS BELOW 12,000 FEET WITH NO
SIGNIFICANT WEATHER AND/OR OBSTRUCTIONS TO VISIBILITY.

KSZ001>006-013>018-027>032-041>047-261700-
NORTHWEST KANSAS

CITY           SKY/WX    TMP DP  RH WIND       PRES   REMARKS
GOODLAND       CLOUDY    33  29  85 NW15      30.24R WCI  23
HAYS           MOSUNNY   39  18  41 N22G33    30.19R WCI  29
HILL CITY      MOSUNNY   36  19  50 N25G37    30.22R WCI  24
RUSSELL        MOSUNNY   40  23  50 NW30G40   30.18R WCI  28
$$

KSZ061>065-074>080-084>089-261700-
SOUTHWEST KANSAS

CITY           SKY/WX    TMP DP  RH WIND       PRES   REMARKS
DODGE CITY     PTSUNNY   41  25  53 NW29G36   30.23R
ELKHART          N/A     38  22  52 NW15        N/A  WCI  29
GARDEN CITY    CLOUDY    38  26  62 NW23G29   30.25R WCI  27
GREAT BEND     PTSUNNY   43  21  42 NW26G36   30.19R
LIBERAL        SUNNY     39  28  65 NW22      30.28R WCI  29
PRATT          PTSUNNY   43  27  52 NW25G36   30.18R
$$

KSZ066>073-081>083-090>101-261700-
SOUTHEAST KANSAS

CITY           SKY/WX    TMP DP  RH WIND       PRES   REMARKS
CHANUTE        MOSUNNY   47  28  47 NW21G31   30.05R
COFFEYVILLE    MOSUNNY   48  31  51 N15       30.07R
HUTCHINSON     MOSUNNY   45  24  43 NW26G37   30.13R
MEDICINE LODGE   N/A     47  28  47 NW22G35   30.16R
NEWTON         SUNNY     45  23  42 NW29G39   30.11R
PARSONS        MOSUNNY   48  30  49 NW17G23   30.07R
WICHITA INTL   MOSUNNY   47  25  42 NW30G39   30.12R
WICHITA JABRA  SUNNY     47  25  42 NW22G36   30.10R
WICHITA MCCONL SUNNY     46  23  40 NW24G38   30.10R
WINFIELD       SUNNY     49  29  46 NW24G35   30.12R
$$

KSZ007>012-019>026-033>040-048>060-102>105-261700-
NORTHEAST KANSAS

CITY           SKY/WX    TMP DP  RH WIND       PRES   REMARKS
CONCORDIA      CLOUDY    36  25  64 NW22G30   30.12R WCI  25
EMPORIA        CLOUDY    45  25  45 NW16G30   30.06R
LAWRENCE       PTSUNNY   42  31  64 NW22G31   30.01R
MANHATTAN      PTSUNNY   44  25  47 NW9G24    30.07R
MARYSVILLE     CLOUDY    37  28  70 NW25G33   30.06R WCI  26
OLATHE IND     CLOUDY    42  33  70 NW16G25   29.99R
OLATHE EXE     PTSUNNY   42  32  67 NW14G25   29.98R
SALINA         MOSUNNY   42  23  46 N32G41    30.12R
TOPEKA BILLARD CLOUDY    44  30  57 NW20G29   30.03R
TOPEKA FORBES  PTSUNNY   44  29  55 NW24G36   30.02R
$$


USA.gov is the U.S. government's official web portal to all federal, state and local government web resources and services.